Weather History for Sarasota, FL

Change the Weather History Date:

Wednesday, November 28, 2012

  Actual Average Record
Temperature  
Mean Temperature 67 °F 67 °F  
Max Temperature 77 °F 76 °F 87 °F (1958)
Min Temperature 57 °F 57 °F 30 °F (1930)
Degree Days  
Heating Degree Days 0 2  
Month to date heating degree days 41 24  
Since 1 July heating degree days 41 27  
Cooling Degree Days 2 4  
Month to date cooling degree days 70 149  
Year to date cooling degree days 3718 3293  
Growing Degree Days 16 (Base 50)    
Moisture  
Dew Point 61 °F    
Average Humidity 89    
Maximum Humidity 100    
Minimum Humidity 54    
Precipitation  
Precipitation 0.00 in 0.06 in 1.60 in (1980)
Month to date precipitation 0.35 1.76  
Year to date precipitation 44.04 50.31  
Sea Level Pressure  
Sea Level Pressure 30.16 in    
Wind  
Wind Speed 7 mph (North)    
Max Wind Speed 16 mph    
Max Gust Speed 21 mph    
Visibility 5 miles    
Events Fog    
T = Trace of Precipitation, MM = Missing Value Source: NWS Daily Summary

Daily Weather History Graph

Daily Weather History Graph

Search for Another Location

Airport:

Trip Planner

Search our weather history database for the weather conditions in past years. The results will help you decide how hot, cold, wet, or windy it might be!

Date:

Astronomy

Nov. 28, 2012 Rise Set
Actual Time 7:01 AM EST 5:35 PM EST
Civil Twilight 6:35 AM EST 6:00 PM EST
Nautical Twilight 6:07 AM EST 6:29 PM EST
Astronomical Twilight 5:39 AM EST 6:57 PM EST
Moon 5:50 PM EST (11/28) 6:57 AM EST (11/28)
Length of Visible Light 11h 24m
Length of Day
10h 34m
Full, 100% of the Moon is Illuminated
Nov 28
Full
Dec 6
Last Quarter
Dec 13
New
Dec 20
First Quarter
Dec 28
Full

Hourly Weather History & Observations

Time (EST) Temp. Dew Point Humidity Pressure Visibility Wind Dir Wind Speed Gust Speed Precip Events Conditions
12:01 AM 64.4 °F 64.4 °F 100% 30.12 in 1.2 mi Calm Calm - N/A   Partly Cloudy
12:03 AM 64.4 °F 62.6 °F 94% 30.12 in 0.8 mi Calm Calm - N/A   Mist
12:53 AM 60.1 °F 60.1 °F 100% 30.12 in 0.2 mi Calm Calm - 0.01 in Fog Fog
1:53 AM 60.1 °F 60.1 °F 100% 30.12 in 0.2 mi Calm Calm - N/A Fog Fog
2:07 AM 57.2 °F 57.2 °F 100% 30.12 in 1.0 mi Calm Calm - N/A   Mostly Cloudy
2:10 AM 57.2 °F 57.2 °F 100% 30.13 in 3.0 mi Calm Calm - N/A   Mostly Cloudy
2:53 AM 61.0 °F 60.1 °F 97% 30.12 in 1.5 mi Calm Calm - N/A   Scattered Clouds
3:11 AM 62.6 °F 62.6 °F 100% 30.13 in 0.8 mi WNW 4.6 mph - N/A   Mist
3:18 AM 60.8 °F 60.8 °F 100% 30.13 in 0.5 mi WNW 3.5 mph - N/A Fog Fog
3:47 AM 62.6 °F 62.6 °F 100% 30.12 in 2.0 mi NW 3.5 mph - N/A   Scattered Clouds
3:48 AM 63.0 °F 63.0 °F 100% 30.12 in 2.0 mi NW 3.5 mph - N/A   Scattered Clouds
3:57 AM 62.6 °F 62.6 °F 100% 30.12 in 1.5 mi NW 3.5 mph - N/A   Partly Cloudy
4:13 AM 62.6 °F 60.8 °F 94% 30.12 in 0.5 mi NNW 3.5 mph - N/A Fog Fog
4:26 AM 62.6 °F 62.6 °F 100% 30.12 in 1.2 mi NNW 5.8 mph - N/A   Mostly Cloudy
4:32 AM 62.6 °F 62.6 °F 100% 30.12 in 3.0 mi North 5.8 mph - N/A   Scattered Clouds
4:45 AM 64.4 °F 62.6 °F 94% 30.12 in 2.5 mi NNE 5.8 mph - N/A   Mostly Cloudy
4:51 AM 64.4 °F 62.6 °F 94% 30.12 in 0.8 mi NNE 5.8 mph - N/A   Mostly Cloudy
4:53 AM 64.0 °F 63.0 °F 96% 30.12 in 0.8 mi NNE 5.8 mph - N/A   Mist
5:53 AM 64.0 °F 64.0 °F 100% 30.12 in 0.5 mi East 3.5 mph - N/A Fog Fog
6:53 AM 64.0 °F 64.0 °F 100% 30.15 in 0.8 mi North 3.5 mph - N/A   Overcast
7:53 AM 64.0 °F 64.0 °F 100% 30.17 in 0.8 mi North 4.6 mph - N/A   Overcast
8:53 AM 64.9 °F 64.9 °F 100% 30.19 in 2.0 mi North 4.6 mph - N/A   Overcast
9:13 AM 66.2 °F 64.4 °F 94% 30.21 in 2.5 mi NE 5.8 mph - N/A   Overcast
9:23 AM 66.2 °F 64.4 °F 94% 30.21 in 3.0 mi NNE 5.8 mph - N/A   Mostly Cloudy
9:53 AM 66.0 °F 64.0 °F 93% 30.22 in 4.0 mi NNE 6.9 mph - N/A   Overcast
10:46 AM 69.8 °F 62.6 °F 78% 30.22 in 8.0 mi ENE 9.2 mph - N/A   Partly Cloudy
10:53 AM 69.1 °F 62.1 °F 78% 30.22 in 9.0 mi ENE 8.1 mph - N/A   Scattered Clouds
11:53 AM 73.0 °F 61.0 °F 66% 30.20 in 10.0 mi ENE 6.9 mph - N/A   Clear
12:53 PM 73.9 °F 59.0 °F 59% 30.18 in 10.0 mi NNW 11.5 mph - N/A   Mostly Cloudy
1:53 PM 75.9 °F 59.0 °F 56% 30.17 in 10.0 mi NNW 12.7 mph - N/A   Clear
2:53 PM 75.9 °F 57.9 °F 54% 30.15 in 10.0 mi North 10.4 mph - N/A   Clear
3:53 PM 73.0 °F 60.1 °F 64% 30.17 in 10.0 mi NNW 6.9 mph - N/A   Clear
4:53 PM 69.1 °F 60.1 °F 73% 30.18 in 10.0 mi NNW 10.4 mph - N/A   Partly Cloudy
5:53 PM 64.9 °F 59.0 °F 81% 30.19 in 10.0 mi North 5.8 mph - N/A   Scattered Clouds
6:53 PM 64.9 °F 57.0 °F 75% 30.21 in 10.0 mi NE 12.7 mph 17.3 mph N/A   Clear
7:53 PM 62.1 °F 55.0 °F 78% 30.22 in 10.0 mi NE 8.1 mph - N/A   Partly Cloudy
8:53 PM 60.1 °F 54.0 °F 80% 30.24 in 10.0 mi NE 8.1 mph - N/A   Scattered Clouds
9:53 PM 57.9 °F 54.0 °F 87% 30.25 in 10.0 mi NNE 9.2 mph - N/A   Clear
10:53 PM 57.0 °F 54.0 °F 89% 30.25 in 10.0 mi NE 10.4 mph - N/A   Partly Cloudy
11:53 PM 57.0 °F 54.0 °F 89% 30.23 in 10.0 mi NE 8.1 mph - N/A   Clear